Time,TemperatureF,DewpointF,PressureIn,WindDirection,WindDirectionDegrees,WindSpeedMPH,WindSpeedGustMPH,Humidity,HourlyPrecipIn,Conditions,Clouds,dailyrainin,SoftwareType,DateUTC
2013-06-02 00:03:00,70.0,-99.9,-100.00,SW,220,2.0,6.0,98,-99.99,,,-99.99,,2013-06-02 04:03:00,
2013-06-02 00:13:00,70.0,69.0,-100.00,SW,220,2.0,4.0,98,-99.99,,,-99.99,,2013-06-02 04:13:00,
2013-06-02 00:23:00,70.0,69.0,-100.00,SW,220,2.0,4.0,98,-99.99,,,-99.99,,2013-06-02 04:23:00,
2013-06-02 00:33:00,70.0,69.0,-100.00,South,180,4.0,6.0,98,-99.99,,,-99.99,,2013-06-02 04:33:00,
2013-06-02 00:42:00,69.0,69.0,-100.00,South,170,4.0,6.0,98,-99.99,,,-99.99,,2013-06-02 04:42:00,
2013-06-02 00:52:00,69.0,69.0,-100.00,South,170,3.0,6.0,98,-99.99,,,-99.99,,2013-06-02 04:52:00,
2013-06-02 01:03:00,69.0,69.0,-100.00,SW,220,2.0,4.0,98,-99.99,,,-99.99,,2013-06-02 05:03:00,
2013-06-02 01:12:00,69.0,69.0,-100.00,WNW,295,2.0,14.0,98,-99.99,,,-99.99,,2013-06-02 05:12:00,
2013-06-02 01:22:00,69.0,69.0,-100.00,WSW,250,2.0,7.0,98,-99.99,,,-99.99,,2013-06-02 05:22:00,
2013-06-02 01:32:00,69.0,69.0,-100.00,SW,225,1.0,5.0,98,-99.99,,,-99.99,,2013-06-02 05:32:00,
2013-06-02 01:42:00,69.0,68.0,-100.00,SW,230,4.0,6.0,98,-99.99,,,-99.99,,2013-06-02 05:42:00,
2013-06-02 01:52:00,68.0,68.0,-100.00,SW,230,2.0,6.0,98,-99.99,,,-99.99,,2013-06-02 05:52:00,
2013-06-02 02:01:00,68.0,68.0,-100.00,SW,230,3.0,5.0,98,-99.99,,,-99.99,,2013-06-02 06:01:00,
2013-06-02 02:12:00,68.0,68.0,-100.00,SSW,210,7.0,13.0,98,-99.99,,,-99.99,,2013-06-02 06:12:00,
2013-06-02 02:21:00,68.0,68.0,-100.00,WSW,240,7.0,10.0,99,-99.99,,,-99.99,,2013-06-02 06:21:00,
2013-06-02 02:32:00,68.0,68.0,-100.00,SW,235,7.0,12.0,99,-99.99,,,-99.99,,2013-06-02 06:32:00,
2013-06-02 02:42:00,68.0,68.0,-100.00,WSW,245,7.0,13.0,99,-99.99,,,-99.99,,2013-06-02 06:42:00,
2013-06-02 02:52:00,67.0,67.0,-100.00,WSW,245,7.0,17.0,99,-99.99,,,-99.99,,2013-06-02 06:52:00,
2013-06-02 03:02:00,67.0,67.0,-100.00,WSW,250,7.0,12.0,99,-99.99,,,-99.99,,2013-06-02 07:02:00,
2013-06-02 03:11:00,67.0,67.0,-100.00,WSW,240,7.0,12.0,99,-99.99,,,-99.99,,2013-06-02 07:11:00,
2013-06-02 03:21:00,67.0,67.0,-100.00,WSW,250,6.0,19.0,99,-99.99,,,-99.99,,2013-06-02 07:21:00,
2013-06-02 03:32:00,67.0,67.0,-100.00,WSW,250,7.0,17.0,99,-99.99,,,-99.99,,2013-06-02 07:32:00,
2013-06-02 03:42:00,67.0,66.0,-100.00,SW,225,7.0,12.0,98,-99.99,,,-99.99,,2013-06-02 07:42:00,
2013-06-02 03:52:00,67.0,66.0,-100.00,SW,225,5.0,12.0,98,-99.99,,,-99.99,,2013-06-02 07:52:00,
2013-06-02 04:02:00,67.0,66.0,-100.00,SW,230,4.0,12.0,98,-99.99,,,-99.99,,2013-06-02 08:02:00,
2013-06-02 04:12:00,67.0,66.0,-100.00,SW,215,9.0,14.0,98,-99.99,,,-99.99,,2013-06-02 08:12:00,
2013-06-02 04:21:00,67.0,66.0,-100.00,SW,215,9.0,14.0,98,-99.99,,,-99.99,,2013-06-02 08:21:00,
2013-06-02 04:32:00,67.0,66.0,-100.00,WSW,240,6.0,12.0,98,-99.99,,,-99.99,,2013-06-02 08:32:00,
2013-06-02 04:42:00,67.0,66.0,-100.00,SW,225,6.0,12.0,98,-99.99,,,-99.99,,2013-06-02 08:42:00,
2013-06-02 04:52:00,67.0,66.0,-100.00,SW,215,6.0,11.0,98,-99.99,,,-99.99,,2013-06-02 08:52:00,
2013-06-02 05:01:00,67.0,66.0,-100.00,SSW,205,5.0,9.0,98,-99.99,,,-99.99,,2013-06-02 09:01:00,
2013-06-02 05:11:00,67.0,66.0,-100.00,SW,220,6.0,11.0,98,-99.99,,,-99.99,,2013-06-02 09:11:00,
2013-06-02 05:21:00,67.0,66.0,-100.00,SW,225,6.0,14.0,98,-99.99,,,-99.99,,2013-06-02 09:21:00,
2013-06-02 05:33:00,66.0,66.0,-100.00,SW,235,8.0,11.0,98,-99.99,,,-99.99,,2013-06-02 09:33:00,
2013-06-02 05:42:00,66.0,66.0,-100.00,SW,235,6.0,12.0,98,-99.99,,,-99.99,,2013-06-02 09:42:00,
2013-06-02 05:53:00,66.0,66.0,-100.00,SW,235,6.0,12.0,98,-99.99,,,-99.99,,2013-06-02 09:53:00,
2013-06-02 06:02:00,66.0,65.0,-100.00,WSW,245,10.0,17.0,98,-99.99,,,-99.99,,2013-06-02 10:02:00,
2013-06-02 06:12:00,66.0,65.0,-100.00,WSW,250,7.0,14.0,98,-99.99,,,-99.99,,2013-06-02 10:12:00,
2013-06-02 06:22:00,65.0,64.0,-100.00,SW,230,6.0,12.0,98,-99.99,,,-99.99,,2013-06-02 10:22:00,
2013-06-02 06:33:00,64.0,64.0,-100.00,SW,230,6.0,12.0,98,-99.99,,,-99.99,,2013-06-02 10:33:00,
2013-06-02 06:42:00,64.0,64.0,-100.00,WSW,245,6.0,12.0,98,-99.99,,,-99.99,,2013-06-02 10:42:00,
2013-06-02 06:52:00,64.0,64.0,-100.00,WSW,245,6.0,12.0,98,-99.99,,,-99.99,,2013-06-02 10:52:00,
2013-06-02 07:02:00,64.0,63.0,-100.00,WSW,255,8.0,16.0,97,-99.99,,,-99.99,,2013-06-02 11:02:00,
2013-06-02 07:12:00,64.0,64.0,-100.00,SW,220,4.0,12.0,97,-99.99,,,-99.99,,2013-06-02 11:12:00,
2013-06-02 07:22:00,64.0,64.0,-100.00,SW,220,4.0,12.0,97,-99.99,,,-99.99,,2013-06-02 11:22:00,
2013-06-02 07:32:00,64.0,63.0,-100.00,West,260,9.0,16.0,97,-99.99,,,-99.99,,2013-06-02 11:32:00,
2013-06-02 07:42:00,64.0,64.0,-100.00,West,260,6.0,17.0,97,-99.99,,,-99.99,,2013-06-02 11:42:00,
2013-06-02 07:52:00,64.0,64.0,-100.00,West,265,6.0,18.0,97,-99.99,,,-99.99,,2013-06-02 11:52:00,
2013-06-02 08:01:00,64.0,64.0,-100.00,SW,235,6.0,12.0,97,-99.99,,,-99.99,,2013-06-02 12:01:00,
2013-06-02 08:11:00,65.0,64.0,-100.00,WSW,255,9.0,16.0,97,-99.99,,,-99.99,,2013-06-02 12:11:00,
2013-06-02 08:21:00,65.0,64.0,-100.00,WSW,245,8.0,14.0,96,-99.99,,,-99.99,,2013-06-02 12:21:00,
2013-06-02 08:32:00,65.0,64.0,-100.00,WSW,245,6.0,17.0,96,-99.99,,,-99.99,,2013-06-02 12:32:00,
2013-06-02 08:42:00,65.0,64.0,-100.00,WSW,250,7.0,14.0,96,-99.99,,,-99.99,,2013-06-02 12:42:00,
2013-06-02 08:52:00,65.0,64.0,-100.00,West,265,9.0,14.0,96,-99.99,,,-99.99,,2013-06-02 12:52:00,
2013-06-02 09:01:00,65.0,64.0,-100.00,WSW,245,7.0,18.0,96,-99.99,,,-99.99,,2013-06-02 13:01:00,
2013-06-02 09:12:00,65.0,64.0,-100.00,WSW,250,7.0,17.0,95,-99.99,,,-99.99,,2013-06-02 13:12:00,
2013-06-02 09:21:00,66.0,65.0,-100.00,West,280,9.0,16.0,94,-99.99,,,-99.99,,2013-06-02 13:21:00,
2013-06-02 09:32:00,67.0,65.0,-100.00,WNW,285,6.0,18.0,94,-99.99,,,-99.99,,2013-06-02 13:32:00,
2013-06-02 09:42:00,67.0,65.0,-100.00,West,260,7.0,16.0,93,-99.99,,,-99.99,,2013-06-02 13:42:00,
2013-06-02 09:52:00,67.0,65.0,-100.00,WSW,245,6.0,15.0,93,-99.99,,,-99.99,,2013-06-02 13:52:00,
2013-06-02 10:02:00,67.0,65.0,-100.00,WSW,245,7.0,14.0,92,-99.99,,,-99.99,,2013-06-02 14:02:00,
2013-06-02 10:11:00,67.0,65.0,-100.00,SW,225,9.0,15.0,92,-99.99,,,-99.99,,2013-06-02 14:11:00,
2013-06-02 10:21:00,68.0,65.0,-100.00,SW,225,9.0,18.0,91,-99.99,,,-99.99,,2013-06-02 14:21:00,
2013-06-02 10:32:00,68.0,65.0,-100.00,WSW,255,9.0,18.0,90,-99.99,,,-99.99,,2013-06-02 14:32:00,
2013-06-02 10:42:00,69.0,65.0,-100.00,SW,215,12.0,18.0,89,-99.99,,,-99.99,,2013-06-02 14:42:00,
2013-06-02 10:52:00,69.0,65.0,-100.00,West,275,9.0,21.0,88,-99.99,,,-99.99,,2013-06-02 14:52:00,
2013-06-02 11:01:00,69.0,65.0,-100.00,West,270,8.0,19.0,86,-99.99,,,-99.99,,2013-06-02 15:01:00,
2013-06-02 11:11:00,70.0,65.0,-100.00,WSW,255,6.0,16.0,84,-99.99,,,-99.99,,2013-06-02 15:11:00,
2013-06-02 11:21:00,70.0,65.0,-100.00,West,265,8.0,18.0,83,-99.99,,,-99.99,,2013-06-02 15:21:00,
2013-06-02 11:33:00,71.0,65.0,-100.00,West,265,7.0,19.0,81,-99.99,,,-99.99,,2013-06-02 15:33:00,
2013-06-02 11:43:00,70.0,64.0,-100.00,SW,220,8.0,18.0,80,-99.99,,,-99.99,,2013-06-02 15:43:00,
2013-06-02 11:53:00,70.0,64.0,-100.00,West,265,10.0,17.0,81,-99.99,,,-99.99,,2013-06-02 15:53:00,
2013-06-02 12:03:00,70.0,64.0,-100.00,WSW,255,9.0,18.0,81,-99.99,,,-99.99,,2013-06-02 16:03:00,
2013-06-02 12:13:00,69.0,64.0,-100.00,WSW,255,12.0,18.0,82,-99.99,,,-99.99,,2013-06-02 16:13:00,
2013-06-02 12:23:00,70.0,65.0,-100.00,SW,230,6.0,14.0,82,-99.99,,,-99.99,,2013-06-02 16:23:00,
2013-06-02 12:33:00,71.0,64.0,-100.00,WSW,255,10.0,20.0,78,-99.99,,,-99.99,,2013-06-02 16:33:00,
2013-06-02 12:42:00,71.0,64.0,-100.00,SW,230,8.0,17.0,77,-99.99,,,-99.99,,2013-06-02 16:42:00,
2013-06-02 12:52:00,71.0,64.0,-100.00,WSW,250,9.0,16.0,77,-99.99,,,-99.99,,2013-06-02 16:52:00,
2013-06-02 13:02:00,70.0,63.0,-100.00,WSW,255,9.0,17.0,77,-99.99,,,-99.99,,2013-06-02 17:02:00,
2013-06-02 13:12:00,70.0,63.0,-100.00,West,265,8.0,16.0,78,-99.99,,,-99.99,,2013-06-02 17:12:00,
2013-06-02 13:23:00,70.0,63.0,-100.00,WSW,250,6.0,15.0,78,-99.99,,,-99.99,,2013-06-02 17:23:00,
2013-06-02 13:32:00,70.0,64.0,-100.00,WSW,250,7.0,17.0,79,-99.99,,,-99.99,,2013-06-02 17:32:00,
2013-06-02 13:42:00,72.0,64.0,-100.00,West,270,13.0,21.0,75,-99.99,,,-99.99,,2013-06-02 17:42:00,
2013-06-02 13:52:00,71.0,63.0,-100.00,WSW,255,8.0,15.0,77,-99.99,,,-99.99,,2013-06-02 17:52:00,
2013-06-02 14:02:00,70.0,63.0,-100.00,SW,235,11.0,19.0,79,-99.99,,,-99.99,,2013-06-02 18:02:00,
2013-06-02 14:11:00,70.0,64.0,-100.00,West,260,7.0,14.0,80,-99.99,,,-99.99,,2013-06-02 18:11:00,
2013-06-02 14:21:00,70.0,64.0,-100.00,West,260,8.0,14.0,81,-99.99,,,-99.99,,2013-06-02 18:21:00,
2013-06-02 14:32:00,69.0,64.0,-100.00,SSW,210,6.0,12.0,83,-99.99,,,-99.99,,2013-06-02 18:32:00,
2013-06-02 14:42:00,69.0,64.0,-100.00,SW,230,4.0,11.0,84,-99.99,,,-99.99,,2013-06-02 18:42:00,
2013-06-02 14:52:00,69.0,64.0,-100.00,SW,230,8.0,16.0,84,-99.99,,,-99.99,,2013-06-02 18:52:00,
2013-06-02 15:01:00,69.0,64.0,-100.00,West,280,4.0,12.0,86,-99.99,,,-99.99,,2013-06-02 19:01:00,
2013-06-02 15:11:00,69.0,65.0,-100.00,WSW,245,7.0,9.0,87,-99.99,,,-99.99,,2013-06-02 19:11:00,
2013-06-02 15:21:00,69.0,65.0,-100.00,West,280,6.0,11.0,87,-99.99,,,-99.99,,2013-06-02 19:21:00,
2013-06-02 15:32:00,70.0,65.0,-100.00,WSW,240,8.0,14.0,86,-99.99,,,-99.99,,2013-06-02 19:32:00,
2013-06-02 15:42:00,70.0,65.0,-100.00,WSW,255,7.0,14.0,85,-99.99,,,-99.99,,2013-06-02 19:42:00,
2013-06-02 15:52:00,69.0,65.0,-100.00,WSW,240,4.0,13.0,85,-99.99,,,-99.99,,2013-06-02 19:52:00,
2013-06-02 16:02:00,70.0,65.0,-100.00,West,260,8.0,17.0,85,-99.99,,,-99.99,,2013-06-02 20:02:00,
2013-06-02 16:11:00,70.0,66.0,-100.00,WSW,250,6.0,14.0,85,-99.99,,,-99.99,,2013-06-02 20:11:00,
2013-06-02 16:22:00,70.0,66.0,-100.00,WSW,255,7.0,11.0,85,-99.99,,,-99.99,,2013-06-02 20:22:00,
2013-06-02 16:32:00,70.0,65.0,-100.00,West,280,9.0,14.0,84,-99.99,,,-99.99,,2013-06-02 20:32:00,
2013-06-02 16:42:00,71.0,63.0,-100.00,WNW,295,10.0,17.0,75,-99.99,,,-99.99,,2013-06-02 20:42:00,
2013-06-02 16:52:00,71.0,63.0,-100.00,West,280,9.0,16.0,73,-99.99,,,-99.99,,2013-06-02 20:52:00,
2013-06-02 17:02:00,72.0,62.0,-100.00,West,275,10.0,15.0,71,-99.99,,,-99.99,,2013-06-02 21:02:00,
2013-06-02 17:12:00,72.0,62.0,-100.00,NW,320,6.0,18.0,71,-99.99,,,-99.99,,2013-06-02 21:12:00,
2013-06-02 17:21:00,71.0,62.0,-100.00,WNW,285,10.0,18.0,71,-99.99,,,-99.99,,2013-06-02 21:21:00,
2013-06-02 17:33:00,72.0,62.0,-100.00,West,265,11.0,17.0,70,-99.99,,,-99.99,,2013-06-02 21:33:00,
2013-06-02 17:42:00,72.0,61.0,-100.00,WNW,295,12.0,19.0,68,-99.99,,,-99.99,,2013-06-02 21:42:00,
2013-06-02 17:53:00,72.0,61.0,-100.00,NW,305,9.0,16.0,68,-99.99,,,-99.99,,2013-06-02 21:53:00,
2013-06-02 18:03:00,72.0,61.0,-100.00,WNW,290,12.0,19.0,69,-99.99,,,-99.99,,2013-06-02 22:03:00,
2013-06-02 18:12:00,71.0,61.0,-100.00,NW,315,7.0,13.0,71,-99.99,,,-99.99,,2013-06-02 22:12:00,
2013-06-02 18:23:00,71.0,61.0,-100.00,NW,305,12.0,16.0,69,-99.99,,,-99.99,,2013-06-02 22:23:00,
2013-06-02 18:33:00,72.0,61.0,-100.00,NW,325,9.0,16.0,68,-99.99,,,-99.99,,2013-06-02 22:33:00,
2013-06-02 18:42:00,71.0,60.0,-100.00,WNW,295,15.0,21.0,67,-99.99,,,-99.99,,2013-06-02 22:42:00,
2013-06-02 18:52:00,71.0,60.0,-100.00,NNW,330,7.0,16.0,68,-99.99,,,-99.99,,2013-06-02 22:52:00,
2013-06-02 19:02:00,71.0,60.0,-100.00,WNW,300,9.0,14.0,68,-99.99,,,-99.99,,2013-06-02 23:02:00,
2013-06-02 19:12:00,71.0,61.0,-100.00,NW,310,6.0,16.0,69,-99.99,,,-99.99,,2013-06-02 23:12:00,
2013-06-02 19:22:00,71.0,60.0,-100.00,NW,325,9.0,15.0,69,-99.99,,,-99.99,,2013-06-02 23:22:00,
2013-06-02 19:32:00,70.0,60.0,-100.00,NNW,330,7.0,14.0,71,-99.99,,,-99.99,,2013-06-02 23:32:00,
2013-06-02 19:42:00,69.0,60.0,-100.00,North,0,11.0,16.0,73,-99.99,,,-99.99,,2013-06-02 23:42:00,
2013-06-02 19:52:00,69.0,60.0,-100.00,North,355,8.0,14.0,73,-99.99,,,-99.99,,2013-06-02 23:52:00,
2013-06-02 20:01:00,68.0,60.0,-100.00,NNW,330,10.0,15.0,75,-99.99,,,-99.99,,2013-06-03 00:01:00,
2013-06-02 20:12:00,68.0,60.0,-100.00,NNW,345,8.0,14.0,76,-99.99,,,-99.99,,2013-06-03 00:12:00,
2013-06-02 20:22:00,67.0,60.0,-100.00,NNW,335,6.0,12.0,79,-99.99,,,-99.99,,2013-06-03 00:22:00,
2013-06-02 20:32:00,66.0,60.0,-100.00,NW,325,8.0,14.0,79,-99.99,,,-99.99,,2013-06-03 00:32:00,
2013-06-02 20:42:00,65.0,59.0,-100.00,North,350,6.0,14.0,81,-99.99,,,-99.99,,2013-06-03 00:42:00,
2013-06-02 20:52:00,64.0,59.0,-100.00,NNW,345,7.0,12.0,82,-99.99,,,-99.99,,2013-06-03 00:52:00,
2013-06-02 21:01:00,64.0,58.0,-100.00,NW,310,9.0,17.0,82,-99.99,,,-99.99,,2013-06-03 01:01:00,
2013-06-02 21:11:00,63.0,58.0,-100.00,NNW,345,7.0,14.0,83,-99.99,,,-99.99,,2013-06-03 01:11:00,
2013-06-02 21:21:00,62.0,58.0,-100.00,NNW,330,8.0,14.0,84,-99.99,,,-99.99,,2013-06-03 01:21:00,
2013-06-02 21:32:00,62.0,57.0,-100.00,NNW,330,7.0,13.0,85,-99.99,,,-99.99,,2013-06-03 01:32:00,
2013-06-02 21:42:00,61.0,57.0,-100.00,NNW,340,6.0,10.0,86,-99.99,,,-99.99,,2013-06-03 01:42:00,
2013-06-02 21:52:00,61.0,57.0,-100.00,NNW,340,6.0,12.0,86,-99.99,,,-99.99,,2013-06-03 01:52:00,
2013-06-02 22:02:00,60.0,57.0,-100.00,North,5,4.0,10.0,87,-99.99,,,-99.99,,2013-06-03 02:02:00,
2013-06-02 22:12:00,60.0,56.0,-100.00,North,5,9.0,12.0,88,-99.99,,,-99.99,,2013-06-03 02:12:00,
2013-06-02 22:22:00,59.0,56.0,-100.00,North,350,7.0,12.0,88,-99.99,,,-99.99,,2013-06-03 02:22:00,
2013-06-02 22:32:00,59.0,56.0,-100.00,NNW,345,6.0,12.0,88,-99.99,,,-99.99,,2013-06-03 02:32:00,
2013-06-02 22:42:00,59.0,56.0,-100.00,North,5,6.0,11.0,87,-99.99,,,-99.99,,2013-06-03 02:42:00,
2013-06-02 22:52:00,59.0,55.0,-100.00,NNW,345,6.0,14.0,87,-99.99,,,-99.99,,2013-06-03 02:52:00,
2013-06-02 23:02:00,59.0,55.0,-100.00,NNW,335,6.0,13.0,86,-99.99,,,-99.99,,2013-06-03 03:02:00,
2013-06-02 23:12:00,58.0,54.0,-100.00,North,0,6.0,9.0,86,-99.99,,,-99.99,,2013-06-03 03:12:00,
2013-06-02 23:22:00,58.0,54.0,-100.00,North,0,6.0,9.0,86,-99.99,,,-99.99,,2013-06-03 03:22:00,
2013-06-02 23:33:00,58.0,54.0,-100.00,North,0,4.0,11.0,86,-99.99,,,-99.99,,2013-06-03 03:33:00,
2013-06-02 23:43:00,58.0,54.0,-100.00,NNW,335,6.0,12.0,86,-99.99,,,-99.99,,2013-06-03 03:43:00,
2013-06-02 23:53:00,58.0,53.0,-100.00,North,5,6.0,12.0,86,-99.99,,,-99.99,,2013-06-03 03:53:00,